WBANNO,USDM_WEEK,LONGITUDE,LATITUDE,SMVWC_5_CM_MEAN,SMANOM_5_CM_MEAN,SMPERC_5_CM_30COUNTS,SMPERC_5_CM_70COUNTS,SMVWC_10_CM_MEAN,SMANOM_10_CM_MEAN,SMPERC_10_CM_30COUNTS,SMPERC_10_CM_70COUNTS,SMVWC_20_CM_MEAN,SMANOM_20_CM_MEAN,SMPERC_20_CM_30COUNTS,SMPERC_20_CM_70COUNTS,SMVWC_50_CM_MEAN,SMANOM_50_CM_MEAN,SMPERC_50_CM_30COUNTS,SMPERC_50_CM_70COUNTS,SMVWC_100_CM_MEAN,SMANOM_100_CM_MEAN,SMPERC_100_CM_30COUNTS,SMPERC_100_CM_70COUNTS,SMVWC_TOP_CM_MEAN,SMANOM_TOP_CM_MEAN,SMPERC_TOP_CM_30COUNTS,SMPERC_TOP_CM_70COUNTS,SMVWC_COLUMN_CM_MEAN,SMANOM_COLUMN_CM_MEAN,SMPERC_COLUMN_CM_30COUNTS,SMPERC_COLUMN_CM_70COUNTS
03074,20100211,-106.74,32.61,,,,,,,,,,,,,,,,,,,,,,,,,,,,
03074,20100212,-106.74,32.61,,,,,,,,,,,,,,,,,,,,,,,,,,,,
03074,20100213,-106.74,32.61,,,,,,,,,,,,,,,,,,,,,,,,,,,,
03074,20100214,-106.74,32.61,,,,,,,,,,,,,,,,,,,,,,,,,,,,
03074,20100215,-106.74,32.61,,,,,,,,,,,,,,,,,,,,,,,,,,,,
03074,20100216,-106.74,32.61,,,,,,,,,,,,,,,,,,,,,,,,,,,,
03074,20100217,-106.74,32.61,0.139,0.76,0,1,0.175,0.81,0,1,0.202,1.13,0,1,0.157,1.86,0,1,0.067,1.08,0,1,0.157,0.8,0,1,0.148,1.15,0,1
03074,20100218,-106.74,32.61,0.139,0.75,0,1,0.175,0.82,0,1,0.201,1.15,0,1,0.158,1.84,0,1,0.067,1.08,0,1,0.157,0.8,0,1,0.148,1.15,0,1
03074,20100219,-106.74,32.61,0.138,0.74,0,1,0.174,0.82,0,1,0.201,1.17,0,1,0.158,1.81,0,1,0.067,1.08,0,1,0.156,0.79,0,1,0.147,1.14,0,1
03074,20100220,-106.74,32.61,0.137,0.73,0,1,0.174,0.81,0,1,0.2,1.18,0,1,0.158,1.79,0,1,0.067,1.04,0,1,0.155,0.78,0,1,0.147,1.13,0,1
03074,20100221,-106.74,32.61,0.136,0.73,0,1,0.173,0.81,0,1,0.199,1.18,0,1,0.158,1.76,0,1,0.067,0.99,0,1,0.155,0.78,0,1,0.147,1.13,0,1
03074,20100222,-106.74,32.61,0.135,0.72,0,1,0.172,0.8,0,1,0.199,1.17,0,1,0.158,1.74,0,1,0.067,0.96,0,1,0.154,0.78,0,1,0.146,1.12,0,1
03074,20100223,-106.74,32.61,0.134,0.72,0,1,0.172,0.8,0,1,0.198,1.16,0,1,0.158,1.73,0,1,0.066,0.91,0,1,0.153,0.77,0,1,0.146,1.11,0,1
03074,20100224,-106.74,32.61,0.133,0.71,0,1,0.171,0.79,0,1,0.197,1.15,0,1,0.158,1.71,0,1,0.067,0.89,0,1,0.152,0.76,0,1,0.145,1.1,0,1
03074,20100225,-106.74,32.61,0.132,0.7,0,1,0.17,0.78,0,1,0.197,1.13,0,1,0.157,1.7,0,1,0.067,0.88,0,1,0.151,0.75,0,1,0.145,1.09,0,1
03074,20100226,-106.74,32.61,0.132,0.7,0,1,0.169,0.77,0,1,0.196,1.12,0,1,0.157,1.68,0,1,0.067,0.86,0,1,0.15,0.74,0,1,0.144,1.09,0,1
03074,20100227,-106.74,32.61,0.131,0.71,0,1,0.169,0.77,0,1,0.195,1.1,0,1,0.157,1.65,0,1,0.067,0.87,0,1,0.15,0.74,0,1,0.144,1.08,0,1
03074,20100228,-106.74,32.61,0.13,0.71,0,1,0.168,0.77,0,1,0.195,1.09,0,1,0.157,1.62,0,1,0.067,0.87,0,1,0.149,0.73,0,1,0.143,1.08,0,1
03074,20100301,-106.74,32.61,0.129,0.71,0,1,0.167,0.76,0,1,0.194,1.07,0,1,0.157,1.6,0,1,0.067,0.86,0,1,0.148,0.73,0,1,0.143,1.07,0,1
03074,20100302,-106.74,32.61,0.129,0.71,0,1,0.166,0.75,0,1,0.193,1.06,0,1,0.157,1.58,0,1,0.067,0.83,0,1,0.148,0.73,0,1,0.142,1.08,0,1
03074,20100303,-106.74,32.61,0.129,0.72,0,1,0.166,0.76,0,1,0.193,1.05,0,1,0.157,1.56,0,1,0.067,0.81,0,1,0.147,0.74,0,1,0.142,1.09,0,1
03074,20100304,-106.74,32.61,0.129,0.74,0,1,0.166,0.77,0,1,0.193,1.06,0,1,0.157,1.54,0,1,0.066,0.76,0,1,0.148,0.76,0,1,0.142,1.1,0,1
03074,20100305,-106.74,32.61,0.129,0.76,0,1,0.166,0.78,0,1,0.193,1.06,0,1,0.157,1.53,0,1,0.066,0.72,0,1,0.148,0.78,0,1,0.142,1.11,0,1
03074,20100306,-106.74,32.61,0.129,0.78,0,1,0.166,0.8,0,1,0.192,1.07,0,1,0.157,1.53,0,1,0.066,0.68,0,1,0.148,0.8,0,1,0.142,1.13,0,1
03074,20100307,-106.74,32.61,0.129,0.79,0,1,0.166,0.81,0,1,0.192,1.08,0,1,0.157,1.53,0,1,0.065,0.62,0,1,0.148,0.82,0,1,0.142,1.15,0,1
03074,20100308,-106.74,32.61,0.129,0.81,0,1,0.167,0.84,0,1,0.193,1.1,0,1,0.157,1.53,0,1,0.065,0.57,0,1,0.148,0.85,0,1,0.142,1.17,0,1
03074,20100309,-106.74,32.61,0.129,0.82,0,1,0.167,0.85,0,1,0.193,1.11,0,1,0.157,1.53,0,1,0.065,0.54,0,0.994,0.148,0.86,0,1,0.142,1.18,0,1
03074,20100310,-106.74,32.61,0.129,0.82,0,1,0.167,0.86,0,1,0.192,1.12,0,1,0.157,1.53,0,1,0.065,0.51,0,0.994,0.148,0.87,0,1,0.142,1.19,0,1
03074,20100311,-106.74,32.61,0.128,0.81,0,1,0.166,0.86,0,1,0.192,1.12,0,1,0.157,1.53,0,1,0.064,0.5,0,0.994,0.147,0.86,0,1,0.141,1.19,0,1
03074,20100312,-106.74,32.61,0.126,0.79,0,1,0.165,0.85,0,1,0.192,1.12,0,1,0.157,1.53,0,1,0.064,0.48,0,0.994,0.146,0.85,0,1,0.141,1.18,0,1
03074,20100313,-106.74,32.61,0.124,0.75,0,1,0.164,0.85,0,1,0.191,1.11,0,1,0.157,1.53,0,1,0.064,0.46,0,0.994,0.144,0.83,0,1,0.14,1.16,0,1
03074,20100314,-106.74,32.61,0.122,0.71,0,0.988,0.164,0.84,0,1,0.19,1.1,0,1,0.157,1.53,0,1,0.065,0.45,0,0.994,0.143,0.8,0,1,0.139,1.15,0,1
03074,20100315,-106.74,32.61,0.119,0.65,0,0.923,0.163,0.83,0,1,0.19,1.09,0,1,0.156,1.52,0,1,0.065,0.44,0,0.994,0.141,0.76,0,1,0.139,1.12,0,1
03074,20100316,-106.74,32.61,0.118,0.64,0,0.911,0.162,0.83,0,1,0.189,1.09,0,1,0.156,1.51,0,1,0.065,0.43,0,1,0.14,0.75,0,0.994,0.138,1.11,0,1
03074,20100317,-106.74,32.61,0.118,0.65,0,0.911,0.162,0.83,0,1,0.189,1.08,0,1,0.156,1.51,0,1,0.065,0.41,0,1,0.14,0.76,0,0.994,0.138,1.11,0,1
03074,20100318,-106.74,32.61,0.118,0.66,0,0.893,0.162,0.83,0,1,0.189,1.08,0,1,0.156,1.5,0,1,0.064,0.37,0,0.982,0.14,0.76,0,0.994,0.138,1.11,0,1
03074,20100319,-106.74,32.61,0.116,0.63,0,0.81,0.162,0.84,0,1,0.188,1.08,0,1,0.156,1.5,0,1,0.064,0.35,0,0.964,0.139,0.74,0,0.988,0.137,1.1,0,1
03074,20100320,-106.74,32.61,0.113,0.57,0,0.69,0.162,0.84,0,1,0.188,1.09,0,1,0.156,1.5,0,1,0.064,0.32,0,0.964,0.137,0.71,0,0.946,0.137,1.08,0,1
03074,20100321,-106.74,32.61,0.114,0.63,0,0.702,0.161,0.83,0,1,0.188,1.09,0,1,0.156,1.49,0,1,0.064,0.33,0,0.958,0.138,0.73,0,0.946,0.137,1.1,0,1
03074,20100322,-106.74,32.61,0.116,0.69,0,0.768,0.16,0.83,0,1,0.187,1.09,0,1,0.156,1.48,0,1,0.065,0.34,0,0.958,0.138,0.76,0,0.946,0.137,1.11,0,1
03074,20100323,-106.74,32.61,0.117,0.72,0,0.774,0.16,0.84,0,1,0.187,1.1,0,1,0.156,1.47,0,1,0.065,0.35,0,0.958,0.138,0.78,0,0.952,0.137,1.12,0,1
03074,20100324,-106.74,32.61,0.116,0.73,0,0.774,0.16,0.84,0,1,0.187,1.11,0,1,0.156,1.47,0,1,0.065,0.37,0,0.958,0.138,0.79,0,0.952,0.137,1.13,0,1
03074,20100325,-106.74,32.61,0.116,0.75,0,0.786,0.159,0.84,0,1,0.186,1.12,0,1,0.155,1.46,0,1,0.066,0.38,0,0.97,0.138,0.81,0,0.952,0.137,1.14,0,1
03074,20100326,-106.74,32.61,0.118,0.82,0,0.863,0.158,0.84,0,1,0.186,1.13,0,1,0.155,1.46,0,1,0.066,0.38,0,0.982,0.138,0.85,0,0.958,0.137,1.16,0,1
03074,20100327,-106.74,32.61,0.122,0.94,0,0.982,0.158,0.85,0,1,0.185,1.15,0,1,0.155,1.46,0,1,0.066,0.37,0,0.97,0.14,0.91,0,1,0.137,1.19,0,1
03074,20100328,-106.74,32.61,0.122,0.96,0,0.97,0.157,0.86,0,1,0.185,1.17,0,1,0.155,1.46,0,1,0.066,0.36,0,0.976,0.14,0.92,0,1,0.137,1.2,0,1
03074,20100329,-106.74,32.61,0.12,0.95,0,0.935,0.157,0.87,0,1,0.185,1.19,0,1,0.155,1.47,0,1,0.066,0.33,0,0.97,0.139,0.93,0,1,0.137,1.2,0,1
03074,20100330,-106.74,32.61,0.118,0.93,0,0.893,0.157,0.88,0,1,0.185,1.22,0,1,0.155,1.5,0,1,0.066,0.3,0,0.946,0.137,0.93,0,1,0.136,1.2,0,1
03074,20100331,-106.74,32.61,0.116,0.92,0,0.845,0.157,0.9,0,1,0.184,1.26,0,1,0.155,1.53,0,1,0.066,0.28,0,0.905,0.136,0.93,0,1,0.135,1.21,0,1
03074,20100401,-106.74,32.61,0.113,0.89,0,0.78,0.157,0.93,0,1,0.184,1.29,0,1,0.155,1.57,0,1,0.065,0.25,0,0.81,0.135,0.94,0,1,0.135,1.21,0,1
03074,20100402,-106.74,32.61,0.111,0.89,0,0.738,0.157,0.95,0,1,0.184,1.33,0,1,0.155,1.62,0,1,0.066,0.24,0,0.786,0.134,0.95,0,1,0.135,1.24,0,1
03074,20100403,-106.74,32.61,0.109,0.9,0,0.72,0.156,0.97,0,1,0.184,1.37,0,1,0.156,1.66,0,1,0.066,0.23,0,0.762,0.133,0.97,0,1,0.134,1.26,0,1
03074,20100404,-106.74,32.61,0.108,0.93,0,0.702,0.156,0.98,0,1,0.184,1.4,0,1,0.156,1.71,0,1,0.066,0.23,0,0.762,0.132,0.99,0,1,0.134,1.29,0,1
03074,20100405,-106.74,32.61,0.108,0.97,0,0.702,0.156,1.01,0,1,0.184,1.43,0,1,0.156,1.74,0,1,0.066,0.24,0,0.768,0.132,1.03,0,1,0.134,1.34,0,1
03074,20100406,-106.74,32.61,0.108,1.01,0,0.714,0.156,1.03,0,1,0.184,1.46,0,1,0.156,1.77,0,1,0.066,0.25,0,0.786,0.132,1.07,0,1,0.134,1.39,0,1
03074,20100407,-106.74,32.61,0.109,1.07,0,0.744,0.155,1.06,0,1,0.184,1.49,0,1,0.156,1.79,0,1,0.066,0.26,0,0.821,0.132,1.11,0,1,0.134,1.45,0,1
03074,20100408,-106.74,32.61,0.11,1.17,0,0.81,0.154,1.08,0,1,0.183,1.51,0,1,0.156,1.79,0,1,0.067,0.27,0,0.875,0.132,1.16,0,1,0.134,1.51,0,1
03074,20100409,-106.74,32.61,0.111,1.25,0,0.857,0.153,1.1,0,1,0.182,1.53,0,1,0.155,1.79,0,1,0.067,0.27,0,0.845,0.132,1.21,0,1,0.134,1.55,0,1
03074,20100410,-106.74,32.61,0.111,1.32,0,0.875,0.152,1.12,0,1,0.182,1.56,0,1,0.155,1.79,0,1,0.067,0.27,0,0.81,0.132,1.26,0,1,0.133,1.6,0,1
03074,20100411,-106.74,32.61,0.112,1.39,0,0.899,0.152,1.16,0,1,0.181,1.6,0,1,0.155,1.78,0,1,0.067,0.27,0,0.798,0.132,1.3,0,1,0.133,1.65,0,1
03074,20100412,-106.74,32.61,0.112,1.5,0,0.935,0.151,1.18,0,1,0.181,1.64,0,1,0.155,1.77,0,1,0.068,0.3,0,0.798,0.132,1.35,0,1,0.133,1.7,0,1
03074,20100413,-106.74,32.61,0.113,1.61,0,0.97,0.15,1.21,0,1,0.18,1.69,0,1,0.154,1.76,0,1,0.068,0.34,0,0.804,0.132,1.41,0,1,0.133,1.75,0,1
03074,20100414,-106.74,32.61,0.113,1.69,0,0.988,0.15,1.23,0,1,0.18,1.73,0,1,0.154,1.76,0,1,0.068,0.36,0,0.81,0.131,1.46,0,1,0.133,1.79,0,1
03074,20100415,-106.74,32.61,0.113,1.76,0,0.994,0.149,1.25,0,1,0.18,1.79,0,1,0.154,1.76,0,1,0.069,0.39,0,0.857,0.131,1.52,0,1,0.133,1.84,0,1
03074,20100416,-106.74,32.61,0.112,1.82,0,0.994,0.149,1.28,0,1,0.18,1.84,0,1,0.154,1.76,0,1,0.069,0.42,0,0.917,0.131,1.57,0,1,0.133,1.88,0,1
03074,20100417,-106.74,32.61,0.112,1.85,0,0.994,0.148,1.3,0,1,0.179,1.89,0,1,0.155,1.77,0,1,0.07,0.46,0,0.982,0.13,1.6,0,1,0.133,1.91,0,1
03074,20100418,-106.74,32.61,0.111,1.87,0,1,0.147,1.3,0,1,0.179,1.93,0,1,0.154,1.77,0,1,0.07,0.46,0,0.964,0.129,1.63,0,1,0.132,1.93,0,1
03074,20100419,-106.74,32.61,0.11,1.88,0,1,0.146,1.32,0,1,0.178,1.96,0,1,0.154,1.77,0,1,0.07,0.44,0,0.964,0.128,1.65,0,1,0.132,1.95,0,1
03074,20100420,-106.74,32.61,0.109,1.87,0,1,0.145,1.32,0,1,0.177,1.98,0,1,0.154,1.77,0,1,0.07,0.43,0,0.964,0.127,1.66,0,1,0.131,1.96,0,1
03074,20100421,-106.74,32.61,0.109,1.9,0,1,0.144,1.34,0,1,0.176,2.02,0,1,0.154,1.77,0,1,0.07,0.45,0,0.964,0.126,1.68,0,1,0.131,1.98,0,1
03074,20100422,-106.74,32.61,0.108,1.94,0,1,0.143,1.37,0,1,0.176,2.05,0,1,0.153,1.77,0,1,0.07,0.44,0,0.964,0.126,1.69,0,1,0.13,2.01,0,1
03074,20100423,-106.74,32.61,0.107,1.93,0,1,0.142,1.36,0,1,0.175,2.06,0,1,0.153,1.76,0,1,0.07,0.45,0,0.964,0.124,1.67,0,1,0.129,2.02,0,1
03074,20100424,-106.74,32.61,0.106,1.93,0,1,0.14,1.36,0,1,0.173,2.06,0,1,0.152,1.75,0,1,0.07,0.45,0,0.97,0.123,1.64,0,1,0.128,2.04,0,1
03074,20100425,-106.74,32.61,0.106,1.99,0,1,0.139,1.37,0,1,0.172,2.08,0,1,0.152,1.74,0,1,0.07,0.46,0,1,0.123,1.66,0,1,0.128,2.08,0,1
03074,20100426,-106.74,32.61,0.106,2.05,0,1,0.139,1.4,0,1,0.172,2.11,0,1,0.151,1.73,0,1,0.07,0.43,0,0.976,0.123,1.68,0,1,0.128,2.13,0,1
03074,20100427,-106.74,32.61,0.107,2.13,0,1,0.139,1.43,0,1,0.171,2.15,0,1,0.151,1.74,0,1,0.07,0.4,0,0.935,0.123,1.71,0,1,0.128,2.18,0,1
03074,20100428,-106.74,32.61,0.107,2.19,0,1,0.139,1.45,0,1,0.171,2.19,0,1,0.151,1.75,0,1,0.07,0.37,0,0.935,0.123,1.73,0,1,0.127,2.23,0,1
03074,20100429,-106.74,32.61,0.107,2.22,0,1,0.139,1.47,0,1,0.17,2.23,0,1,0.15,1.78,0,1,0.07,0.34,0,0.923,0.123,1.74,0,1,0.127,2.27,0,1
03074,20100430,-106.74,32.61,0.107,2.27,0,1,0.139,1.5,0,1,0.17,2.27,0,1,0.15,1.81,0,1,0.07,0.34,0,0.923,0.123,1.77,0,1,0.127,2.31,0,1
03074,20100501,-106.74,32.61,0.107,2.29,0,1,0.139,1.53,0,1,0.17,2.32,0,1,0.15,1.84,0,1,0.07,0.34,0,0.923,0.123,1.79,0,1,0.127,2.33,0,1
03074,20100502,-106.74,32.61,0.106,2.27,0,1,0.138,1.52,0,1,0.169,2.34,0,1,0.15,1.88,0,1,0.07,0.33,0,0.917,0.122,1.76,0,1,0.127,2.31,0,1
03074,20100503,-106.74,32.61,0.104,2.2,0,1,0.137,1.5,0,1,0.168,2.35,0,1,0.15,1.9,0,1,0.07,0.35,0,0.94,0.121,1.71,0,1,0.126,2.27,0,1
03074,20100504,-106.74,32.61,0.103,2.12,0,1,0.136,1.47,0,1,0.167,2.34,0,1,0.149,1.92,0,1,0.07,0.36,0,0.964,0.119,1.64,0,1,0.125,2.22,0,1
03074,20100505,-106.74,32.61,0.101,2.05,0,1,0.134,1.44,0,1,0.165,2.33,0,1,0.149,1.93,0,1,0.07,0.35,0,0.952,0.118,1.59,0,1,0.124,2.16,0,1
03074,20100506,-106.74,32.61,0.1,1.99,0,1,0.133,1.43,0,1,0.164,2.32,0,1,0.148,1.92,0,1,0.07,0.35,0,0.952,0.117,1.54,0,1,0.123,2.11,0,1
03074,20100507,-106.74,32.61,0.099,1.94,0,1,0.133,1.41,0,1,0.164,2.32,0,1,0.147,1.92,0,1,0.07,0.33,0,0.935,0.116,1.5,0,1,0.122,2.06,0,1
03074,20100508,-106.74,32.61,0.098,1.9,0,1,0.132,1.41,0,1,0.163,2.31,0,1,0.147,1.93,0,1,0.07,0.33,0,0.911,0.115,1.47,0,1,0.122,2.03,0,1
03074,20100509,-106.74,32.61,0.098,1.85,0,1,0.131,1.41,0,1,0.162,2.31,0,1,0.146,1.94,0,1,0.07,0.32,0,0.887,0.114,1.45,0,1,0.121,2,0,1
03074,20100510,-106.74,32.61,0.097,1.82,0,1,0.131,1.41,0,1,0.162,2.31,0,1,0.146,1.95,0,1,0.07,0.32,0,0.887,0.114,1.44,0,1,0.121,1.98,0,1
03074,20100511,-106.74,32.61,0.096,1.76,0,1,0.13,1.4,0,1,0.161,2.29,0,1,0.146,1.97,0,1,0.07,0.33,0,0.905,0.113,1.42,0,1,0.121,1.96,0,1
03074,20100512,-106.74,32.61,0.095,1.69,0,1,0.128,1.37,0,1,0.16,2.27,0,1,0.145,1.98,0,1,0.071,0.35,0,0.911,0.111,1.38,0,1,0.12,1.92,0,1
03074,20100513,-106.74,32.61,0.093,1.61,0,1,0.127,1.33,0,1,0.159,2.24,0,1,0.145,1.99,0,1,0.071,0.38,0,0.923,0.11,1.33,0,1,0.119,1.88,0,1
03074,20100514,-106.74,32.61,0.091,1.54,0,1,0.125,1.28,0,1,0.158,2.19,0,1,0.144,1.99,0,1,0.071,0.4,0,0.94,0.108,1.28,0,1,0.118,1.83,0,1
03074,20100515,-106.74,32.61,0.09,1.48,0,1,0.123,1.24,0,1,0.156,2.16,0,1,0.144,1.98,0,1,0.071,0.4,0,0.964,0.106,1.24,0,1,0.117,1.79,0,1
03074,20100516,-106.74,32.61,0.089,1.44,0,1,0.121,1.21,0,1,0.155,2.13,0,1,0.143,1.97,0,1,0.071,0.41,0,0.994,0.105,1.21,0,1,0.116,1.76,0,1
03074,20100517,-106.74,32.61,0.088,1.41,0,1,0.12,1.18,0,1,0.154,2.11,0,1,0.142,1.96,0,1,0.071,0.4,0,0.952,0.104,1.18,0,1,0.115,1.73,0,1
03074,20100518,-106.74,32.61,0.087,1.38,0,1,0.119,1.15,0,1,0.153,2.09,0,1,0.141,1.95,0,1,0.071,0.41,0,0.952,0.103,1.16,0,1,0.114,1.71,0,1
03074,20100519,-106.74,32.61,0.086,1.35,0,1,0.118,1.12,0,1,0.152,2.07,0,1,0.14,1.93,0,1,0.072,0.44,0,0.958,0.102,1.13,0,1,0.114,1.68,0,1
03074,20100520,-106.74,32.61,0.085,1.32,0,1,0.117,1.1,0,1,0.151,2.06,0,1,0.14,1.92,0,1,0.072,0.46,0,0.958,0.101,1.11,0,1,0.113,1.66,0,1
03074,20100521,-106.74,32.61,0.084,1.28,0,0.994,0.116,1.07,0,1,0.15,2.03,0,1,0.139,1.9,0,1,0.072,0.47,0,0.958,0.1,1.08,0,1,0.112,1.64,0,1
03074,20100522,-106.74,32.61,0.084,1.24,0,0.994,0.115,1.04,0,1,0.15,2.01,0,1,0.138,1.89,0,1,0.072,0.5,0,0.958,0.099,1.05,0,1,0.112,1.61,0,1
03074,20100523,-106.74,32.61,0.083,1.19,0,0.994,0.114,1.01,0,1,0.149,1.98,0,1,0.138,1.87,0,1,0.073,0.55,0,0.958,0.098,1.02,0,1,0.111,1.58,0,1
03074,20100524,-106.74,32.61,0.081,1.09,0,0.964,0.113,0.98,0,1,0.148,1.96,0,1,0.137,1.84,0,1,0.073,0.59,0,1,0.097,0.97,0,0.988,0.11,1.52,0,1
03074,20100525,-106.74,32.61,0.078,0.96,0,0.911,0.111,0.93,0,1,0.146,1.92,0,1,0.136,1.81,0,1,0.073,0.62,0,1,0.095,0.89,0,0.958,0.109,1.45,0,1
03074,20100526,-106.74,32.61,0.076,0.84,0,0.857,0.11,0.88,0,1,0.145,1.88,0,1,0.135,1.77,0,1,0.073,0.62,0,1,0.093,0.83,0,0.905,0.108,1.38,0,1
03074,20100527,-106.74,32.61,0.075,0.75,0,0.827,0.109,0.84,0,1,0.144,1.85,0,1,0.134,1.73,0,1,0.073,0.62,0,1,0.092,0.78,0,0.875,0.107,1.32,0,1
03074,20100528,-106.74,32.61,0.074,0.71,0,0.833,0.108,0.8,0,1,0.143,1.83,0,1,0.132,1.69,0,1,0.073,0.6,0,0.982,0.091,0.75,0,0.875,0.106,1.27,0,1
03074,20100529,-106.74,32.61,0.073,0.66,0,0.833,0.107,0.77,0,1,0.142,1.81,0,1,0.131,1.65,0,1,0.073,0.6,0,0.982,0.09,0.72,0,0.875,0.105,1.23,0,1
03074,20100530,-106.74,32.61,0.072,0.62,0,0.833,0.106,0.73,0,1,0.141,1.79,0,1,0.13,1.62,0,1,0.073,0.59,0,0.982,0.089,0.69,0,0.875,0.105,1.19,0,1
03074,20100531,-106.74,32.61,0.072,0.58,0,0.827,0.105,0.7,0,1,0.141,1.75,0,1,0.129,1.6,0,1,0.073,0.61,0,0.982,0.088,0.66,0,0.851,0.104,1.16,0,1
03074,20100601,-106.74,32.61,0.071,0.57,0,0.845,0.104,0.67,0,0.982,0.14,1.72,0,1,0.128,1.58,0,1,0.073,0.64,0,0.982,0.088,0.64,0,0.845,0.103,1.13,0,1
03074,20100602,-106.74,32.61,0.071,0.55,0,0.851,0.103,0.64,0,0.887,0.139,1.68,0,1,0.128,1.56,0,1,0.074,0.69,0,0.982,0.087,0.62,0,0.815,0.103,1.1,0,1
03074,20100603,-106.74,32.61,0.07,0.5,0.006,0.804,0.102,0.61,0,0.762,0.138,1.62,0,1,0.127,1.54,0,1,0.074,0.71,0,0.982,0.086,0.58,0,0.726,0.102,1.05,0,1
03074,20100604,-106.74,32.61,0.067,0.41,0.012,0.72,0.101,0.57,0,0.631,0.137,1.56,0,1,0.126,1.53,0,1,0.074,0.73,0,1,0.084,0.53,0,0.601,0.101,0.99,0,1
03074,20100605,-106.74,32.61,0.065,0.33,0.012,0.631,0.099,0.52,0,0.5,0.136,1.49,0,1,0.124,1.51,0,1,0.074,0.72,0,1,0.082,0.47,0,0.458,0.1,0.93,0,1
03074,20100606,-106.74,32.61,0.064,0.25,0.024,0.554,0.098,0.49,0,0.405,0.135,1.42,0,1,0.123,1.48,0,1,0.074,0.71,0,0.988,0.081,0.42,0,0.321,0.099,0.86,0,1
03074,20100607,-106.74,32.61,0.062,0.2,0.03,0.464,0.097,0.46,0,0.28,0.133,1.36,0,1,0.122,1.45,0,1,0.074,0.68,0,0.964,0.08,0.38,0,0.214,0.098,0.81,0,1
03074,20100608,-106.74,32.61,0.062,0.17,0.03,0.405,0.096,0.43,0,0.179,0.133,1.31,0,1,0.121,1.43,0,1,0.073,0.6,0,0.905,0.079,0.35,0,0.107,0.097,0.76,0,1
03074,20100609,-106.74,32.61,0.061,0.14,0.042,0.351,0.095,0.4,0,0.131,0.132,1.26,0,1,0.12,1.41,0,1,0.072,0.51,0,0.833,0.078,0.31,0,0.048,0.096,0.71,0,0.976
03074,20100610,-106.74,32.61,0.06,0.11,0.065,0.304,0.094,0.37,0,0.113,0.131,1.21,0,1,0.119,1.38,0,1,0.072,0.44,0,0.804,0.077,0.28,0,0.024,0.095,0.67,0,0.911
03074,20100611,-106.74,32.61,0.058,0.05,0.143,0.244,0.093,0.33,0,0.101,0.13,1.15,0,1,0.118,1.34,0,1,0.072,0.41,0,0.78,0.076,0.23,0,0.006,0.094,0.61,0,0.827
03074,20100612,-106.74,32.61,0.057,-0.01,0.232,0.19,0.091,0.29,0,0.089,0.129,1.07,0,1,0.117,1.32,0,1,0.072,0.38,0,0.744,0.074,0.18,0,0.006,0.093,0.54,0,0.702
03074,20100613,-106.74,32.61,0.055,-0.08,0.315,0.125,0.089,0.24,0,0.042,0.127,0.98,0,1,0.116,1.29,0,1,0.071,0.34,0,0.696,0.072,0.12,0,0,0.092,0.47,0,0.56
03074,20100614,-106.74,32.61,0.053,-0.15,0.417,0.107,0.088,0.19,0,0.024,0.126,0.88,0,1,0.115,1.25,0,1,0.071,0.3,0,0.637,0.07,0.06,0,0,0.091,0.38,0,0.417
03074,20100615,-106.74,32.61,0.051,-0.24,0.524,0.06,0.086,0.13,0,0,0.124,0.77,0,1,0.114,1.21,0,1,0.071,0.27,0,0.583,0.068,-0.01,0,0,0.089,0.3,0,0.274
03074,20100616,-106.74,32.61,0.049,-0.31,0.619,0.018,0.084,0.09,0,0,0.122,0.68,0,0.994,0.113,1.17,0,1,0.071,0.23,0,0.512,0.067,-0.06,0,0,0.088,0.22,0,0.155
03074,20100617,-106.74,32.61,0.048,-0.35,0.685,0,0.083,0.05,0,0,0.121,0.59,0,0.994,0.113,1.13,0,1,0.071,0.17,0.006,0.399,0.065,-0.1,0,0,0.087,0.15,0,0.077
03074,20100618,-106.74,32.61,0.047,-0.37,0.696,0,0.082,0.02,0,0,0.12,0.52,0,0.982,0.112,1.1,0,1,0.07,0.09,0.024,0.28,0.064,-0.13,0,0,0.086,0.1,0,0.018
03074,20100619,-106.74,32.61,0.047,-0.38,0.702,0,0.081,-0.01,0,0,0.119,0.45,0,0.899,0.111,1.07,0,1,0.07,0.05,0.024,0.179,0.064,-0.15,0,0,0.085,0.05,0,0
03074,20100620,-106.74,32.61,0.047,-0.38,0.696,0,0.08,-0.02,0,0,0.118,0.41,0,0.845,0.11,1.04,0,1,0.07,0,0.024,0.101,0.063,-0.16,0,0,0.085,0.02,0,0
03074,20100621,-106.74,32.61,0.047,-0.37,0.685,0,0.079,-0.04,0,0,0.118,0.38,0,0.732,0.11,1.03,0,1,0.07,-0.08,0.077,0.042,0.063,-0.16,0,0,0.085,-0.01,0,0
03074,20100622,-106.74,32.61,0.047,-0.36,0.673,0,0.079,-0.05,0,0,0.117,0.34,0,0.589,0.109,1.01,0,1,0.069,-0.13,0.107,0.012,0.063,-0.17,0,0,0.084,-0.03,0,0
03074,20100623,-106.74,32.61,0.047,-0.36,0.655,0,0.078,-0.07,0,0,0.117,0.32,0,0.452,0.109,1.01,0,1,0.069,-0.17,0.137,0.012,0.063,-0.17,0,0,0.084,-0.06,0,0
03074,20100624,-106.74,32.61,0.047,-0.38,0.661,0,0.078,-0.09,0,0,0.116,0.28,0,0.31,0.109,1,0,1,0.069,-0.2,0.143,0.012,0.062,-0.2,0,0,0.084,-0.1,0,0
03074,20100625,-106.74,32.61,0.046,-0.4,0.667,0,0.077,-0.12,0,0,0.115,0.23,0,0.179,0.108,0.99,0,1,0.069,-0.22,0.137,0.012,0.061,-0.23,0.06,0,0.083,-0.15,0,0
03074,20100626,-106.74,32.61,0.046,-0.4,0.655,0,0.076,-0.15,0,0,0.114,0.2,0,0.119,0.108,0.97,0,0.994,0.069,-0.29,0.22,0.006,0.061,-0.26,0.143,0,0.083,-0.2,0,0
03074,20100627,-106.74,32.61,0.045,-0.45,0.708,0,0.075,-0.19,0.006,0,0.113,0.15,0,0.03,0.108,0.95,0,0.994,0.068,-0.33,0.274,0,0.06,-0.32,0.28,0,0.082,-0.27,0.089,0
03074,20100628,-106.74,32.61,0.045,-0.46,0.702,0,0.074,-0.23,0.012,0,0.112,0.1,0,0,0.107,0.92,0,0.988,0.068,-0.37,0.31,0,0.06,-0.36,0.375,0,0.081,-0.33,0.179,0
03074,20100629,-106.74,32.61,0.045,-0.48,0.702,0,0.073,-0.27,0.083,0,0.111,0.06,0,0,0.107,0.88,0,0.982,0.068,-0.44,0.423,0,0.059,-0.4,0.5,0,0.081,-0.41,0.298,0
03074,20100630,-106.74,32.61,0.045,-0.46,0.661,0,0.072,-0.32,0.226,0,0.11,0.01,0,0,0.106,0.83,0,0.976,0.067,-0.52,0.536,0,0.059,-0.44,0.595,0,0.08,-0.47,0.44,0
03074,20100701,-106.74,32.61,0.047,-0.41,0.56,0,0.072,-0.36,0.369,0,0.109,-0.03,0,0,0.106,0.79,0,0.946,0.067,-0.55,0.601,0,0.06,-0.45,0.702,0,0.08,-0.51,0.548,0
03074,20100702,-106.74,32.61,0.049,-0.36,0.458,0,0.072,-0.4,0.512,0,0.108,-0.06,0,0,0.105,0.74,0,0.887,0.067,-0.58,0.679,0,0.061,-0.46,0.78,0,0.08,-0.54,0.685,0
03074,20100703,-106.74,32.61,0.05,-0.34,0.399,0,0.072,-0.44,0.655,0,0.107,-0.09,0,0,0.105,0.7,0,0.821,0.067,-0.62,0.732,0,0.061,-0.48,0.839,0,0.08,-0.57,0.827,0
03074,20100704,-106.74,32.61,0.052,-0.28,0.286,0,0.072,-0.47,0.792,0,0.107,-0.11,0,0,0.104,0.65,0,0.75,0.067,-0.69,0.815,0,0.062,-0.48,0.845,0,0.08,-0.58,0.881,0
03074,20100705,-106.74,32.61,0.053,-0.26,0.25,0,0.072,-0.5,0.929,0,0.106,-0.13,0.006,0,0.104,0.6,0,0.667,0.067,-0.71,0.845,0,0.063,-0.5,0.893,0,0.08,-0.61,0.935,0
03074,20100706,-106.74,32.61,0.054,-0.26,0.232,0,0.072,-0.52,1,0,0.105,-0.15,0.006,0,0.103,0.55,0,0.542,0.067,-0.67,0.768,0,0.063,-0.51,0.911,0,0.08,-0.62,0.958,0
03074,20100707,-106.74,32.61,0.053,-0.3,0.321,0,0.072,-0.54,1,0,0.105,-0.16,0.006,0,0.103,0.51,0,0.417,0.067,-0.65,0.744,0,0.062,-0.55,0.958,0,0.08,-0.65,0.958,0
03074,20100708,-106.74,32.61,0.052,-0.34,0.44,0.018,0.072,-0.56,0.988,0,0.105,-0.18,0.012,0,0.102,0.47,0,0.321,0.067,-0.7,0.804,0,0.062,-0.59,0.976,0.006,0.08,-0.68,0.976,0.006
03074,20100709,-106.74,32.61,0.059,-0.18,0.44,0.161,0.079,-0.41,0.845,0.143,0.104,-0.2,0.095,0,0.102,0.46,0,0.298,0.067,-0.73,0.839,0,0.069,-0.42,0.839,0.149,0.082,-0.54,0.839,0.149
03074,20100710,-106.74,32.61,0.065,-0.06,0.417,0.304,0.086,-0.26,0.702,0.286,0.104,-0.22,0.137,0,0.102,0.46,0,0.315,0.067,-0.72,0.815,0,0.075,-0.28,0.696,0.292,0.085,-0.4,0.696,0.292
03074,20100711,-106.74,32.61,0.07,0.04,0.387,0.417,0.093,-0.1,0.56,0.429,0.103,-0.22,0.137,0,0.102,0.47,0,0.345,0.067,-0.69,0.815,0,0.082,-0.13,0.554,0.435,0.087,-0.26,0.554,0.435
03074,20100712,-106.74,32.61,0.076,0.18,0.333,0.482,0.102,0.1,0.417,0.571,0.103,-0.22,0.149,0,0.102,0.48,0,0.375,0.067,-0.66,0.774,0,0.089,0.05,0.411,0.548,0.09,-0.08,0.411,0.53
03074,20100713,-106.74,32.61,0.086,0.39,0.256,0.625,0.115,0.39,0.274,0.714,0.105,-0.12,0.149,0.095,0.102,0.48,0,0.375,0.067,-0.67,0.804,0,0.1,0.33,0.268,0.69,0.095,0.19,0.268,0.673
03074,20100714,-106.74,32.61,0.094,0.56,0.119,0.768,0.127,0.67,0.131,0.857,0.109,0.04,0.149,0.238,0.102,0.48,0,0.393,0.068,-0.62,0.69,0,0.11,0.59,0.125,0.833,0.1,0.45,0.125,0.815
03074,20100715,-106.74,32.61,0.1,0.68,0,0.81,0.138,0.93,0,1,0.112,0.2,0.143,0.381,0.103,0.51,0,0.452,0.068,-0.59,0.667,0,0.119,0.83,0,0.97,0.104,0.69,0,0.952
03074,20100716,-106.74,32.61,0.097,0.57,0,0.667,0.141,1.02,0,1,0.116,0.37,0.06,0.524,0.103,0.54,0,0.518,0.068,-0.56,0.649,0,0.119,0.83,0,0.97,0.105,0.74,0,0.952
03074,20100717,-106.74,32.61,0.095,0.48,0,0.524,0.143,1.1,0,1,0.119,0.53,0.018,0.667,0.103,0.54,0,0.512,0.068,-0.55,0.631,0,0.119,0.84,0,0.97,0.106,0.79,0,0.952
03074,20100718,-106.74,32.61,0.094,0.4,0,0.411,0.145,1.17,0,1,0.122,0.66,0.018,0.81,0.103,0.54,0,0.5,0.068,-0.53,0.607,0,0.119,0.84,0,0.881,0.106,0.84,0,0.952
03074,20100719,-106.74,32.61,0.091,0.27,0.042,0.345,0.145,1.19,0,1,0.125,0.79,0,0.952,0.103,0.53,0,0.488,0.068,-0.54,0.649,0,0.118,0.78,0,0.768,0.106,0.83,0,0.994
03074,20100720,-106.74,32.61,0.085,0.09,0.173,0.202,0.141,1.08,0,1,0.126,0.81,0,1,0.103,0.58,0,0.601,0.068,-0.58,0.685,0,0.113,0.63,0,0.637,0.105,0.72,0,0.881
03074,20100721,-106.74,32.61,0.082,-0.02,0.244,0.06,0.137,0.97,0,1,0.126,0.77,0,0.994,0.104,0.64,0,0.714,0.068,-0.6,0.774,0,0.11,0.51,0,0.53,0.103,0.63,0,0.81
03074,20100722,-106.74,32.61,0.081,-0.09,0.28,0,0.133,0.84,0,0.881,0.125,0.7,0,0.887,0.104,0.67,0,0.78,0.068,-0.6,0.762,0,0.107,0.39,0,0.387,0.102,0.53,0,0.702
03074,20100723,-106.74,32.61,0.082,-0.1,0.28,0,0.129,0.7,0,0.738,0.124,0.62,0,0.744,0.104,0.67,0,0.75,0.068,-0.58,0.69,0,0.105,0.3,0,0.244,0.101,0.45,0,0.56
03074,20100724,-106.74,32.61,0.083,-0.11,0.286,0,0.125,0.55,0,0.595,0.123,0.54,0,0.601,0.104,0.66,0,0.744,0.068,-0.58,0.696,0,0.104,0.23,0.006,0.101,0.1,0.37,0,0.417